Location: Aulnoy
(48.8410°N, 3.0967°E)
Time: 19:39:27
(UTC+00:00)

Cosmos 2058 - Pass Details

Date: 09 February 2023
Orbit: 555 x 577 km, 82.5° (Epoch: 25 March)

Event Time Altitude Azimuth Distance (km) Brightness Sun altitude
Rises 19:39:52 0° 208° (SSW) 2,786 6.7 -27.0°
Reaches altitude 10° 19:42:10 10° 216° (SW) 1,890 5.8 -27.3°
Maximum altitude 19:46:05 39° 286° (WNW) 883 4.3 -28.0°
Enters shadow 19:48:45 18° 346° (NNW) 1,440 5.1 -28.4°
